START_TIME,STEP,MOV.,M6,t_acc.,M7,t_acc.,M19,t_acc.,H36,t_acc.
1981-08-28 09:00:27.820 ,4,1,0.,12.0,0.,12.0,0.,12.0,0.,12.0
1981-08-28 09:00:39.820 ,4,1,0.,12.0,0.,12.0,0.,12.0,0.,12.0
1981-08-28 09:00:51.820 ,3,1,0.,12.0,0.,12.0,0.,12.0,0.,12.0
1981-08-28 09:01:03.820 ,3,1,0.,12.0,0.,12.0,0.,12.0,0.,12.0
1981-08-28 09:01:15.820 ,2,1,0.,12.0,0.,12.0,0.,12.0,0.,12.0
1981-08-28 09:01:27.820 ,2,1,0.,12.0,0.,12.0,0.,12.0,0.,12.0
1981-08-28 09:01:39.820 ,1,1,0.,12.0,0.,12.0,0.,12.0,0.,12.0
1981-08-28 09:01:51.820 ,1,1,0.,12.0,0.,12.0,0.,12.0,0.,12.0
1981-08-28 09:02:03.820 ,0,1,0.,12.0,0.,12.0,0.,12.0,0.,12.0
1981-08-28 09:02:15.820 ,0,1,0.,12.0,0.,12.0,0.,12.0,0.,12.0
1981-08-28 09:02:27.820 ,0,1,0.,12.0,0.,12.0,0.,12.0,0.,12.0
1981-08-28 09:02:39.820 ,0,1,0.,12.0,0.,12.0,0.,12.0,0.,12.0
1981-08-28 09:02:51.820 ,1,1,0.,12.0,0.,12.0,0.,12.0,0.,12.0
1981-08-28 09:03:03.820 ,1,1,0.,12.0,0.,12.0,0.,12.0,0.,12.0
1981-08-28 09:03:15.820 ,2,1,0.,12.0,0.,12.0,0.,12.0,0.,12.0
1981-08-28 09:03:27.820 ,2,1,0.,12.0,0.,12.0,0.,12.0,0.,12.0
1981-08-28 09:03:39.820 ,3,1,0.,12.0,0.,12.0,0.,12.0,0.,12.0
1981-08-28 09:03:51.820 ,3,1,0.,12.0,0.,12.0,0.,12.0,0.,12.0
1981-08-28 09:04:03.820 ,4,1,0.,12.0,0.,12.0,0.,12.0,0.,12.0
1981-08-28 09:04:15.820 ,4,1,0.,12.0,0.,12.0,0.,12.0,0.,12.0
1981-08-28 09:04:27.820 ,5,1,0.,12.0,0.,12.0,0.,12.0,0.,12.0
1981-08-28 09:04:39.820 ,5,1,0.,12.0,0.,12.0,0.,12.0,0.,12.0
1981-08-28 09:04:51.820 ,6,1,0.,12.0,0.,12.0,0.,12.0,0.,12.0
1981-08-28 09:05:03.820 ,6,1,0.,12.0,0.,12.0,0.,12.0,0.,12.0
1981-08-28 09:05:15.820 ,7,1,0.,12.0,0.,12.0,0.,12.0,0.,12.0
1981-08-28 09:05:27.820 ,7,1,0.,12.0,0.,12.0,0.,12.0,0.,12.0
1981-08-28 09:05:39.820 ,7,1,0.,12.0,0.,12.0,0.,12.0,0.,12.0
1981-08-28 09:05:51.820 ,7,1,0.,12.0,0.,12.0,0.,12.0,0.,12.0
1981-08-28 09:06:03.820 ,7,0,0.,12.0,0.,12.0,0.,12.0,0.,12.0
1981-08-28 09:06:15.820 ,7,0,0.,12.0,0.,12.0,0.,12.0,0.,12.0
1981-08-28 09:06:27.820 ,6,1,0.,12.0,0.,12.0,0.,12.0,0.,12.0
1981-08-28 09:06:39.820 ,6,1,0.,12.0,0.,12.0,0.,12.0,0.,12.0
1981-08-28 09:06:51.820 ,6,0,0.,12.0,0.,12.0,0.,12.0,0.,12.0
1981-08-28 09:07:03.820 ,6,0,0.,12.0,0.,12.0,0.,12.0,0.,12.0
1981-08-28 09:07:15.820 ,5,1,0.,12.0,0.,12.0,0.,12.0,0.,12.0
1981-08-28 09:07:27.820 ,5,1,0.,12.0,0.,12.0,0.,12.0,0.,12.0
1981-08-28 09:07:39.820 ,5,0,0.,12.0,0.,12.0,0.,12.0,0.,12.0
1981-08-28 09:07:51.820 ,5,0,0.,12.0,0.,12.0,0.,12.0,0.,12.0
1981-08-28 09:08:03.820 ,4,1,0.,12.0,0.,12.0,0.,12.0,0.,12.0
1981-08-28 09:08:15.820 ,4,1,0.,12.0,0.,12.0,0.,12.0,0.,12.0
1981-08-28 09:08:27.820 ,4,0,0.,12.0,0.,12.0,0.,12.0,0.,12.0
1981-08-28 09:08:39.820 ,4,0,,0,,0,,0,,0
1981-08-28 09:08:51.820 ,3,1,0.,12.0,0.,12.0,0.,12.0,0.,12.0
1981-08-28 09:09:03.820 ,3,1,0.,12.0,0.,12.0,0.,12.0,0.,12.0
1981-08-28 09:09:15.820 ,3,0,0.,12.0,0.,12.0,0.,12.0,0.,12.0
1981-08-28 09:09:27.820 ,3,0,0.,12.0,0.,12.0,0.,12.0,0.,12.0
1981-08-28 09:09:39.820 ,2,1,0.,12.0,0.,12.0,0.,12.0,0.,12.0
1981-08-28 09:09:51.820 ,2,1,0.,12.0,0.,12.0,0.,12.0,0.,12.0
1981-08-28 09:10:03.820 ,2,0,0.,12.0,0.,12.0,0.,12.0,0.,12.0
1981-08-28 09:10:15.820 ,2,0,0.,12.0,0.,12.0,0.,12.0,0.,12.0
1981-08-28 09:10:27.820 ,1,1,0.,12.0,0.,12.0,0.,12.0,0.,12.0
1981-08-28 09:10:39.820 ,1,1,0.,12.0,0.,12.0,0.,12.0,0.,12.0
1981-08-28 09:10:51.820 ,1,0,0.,12.0,0.,12.0,0.,12.0,0.,12.0
1981-08-28 09:11:03.820 ,1,0,0.,12.0,0.,12.0,0.,12.0,0.,12.0
1981-08-28 09:11:15.820 ,0,1,0.,12.0,0.,12.0,0.,12.0,0.,12.0
1981-08-28 09:11:27.820 ,0,1,0.,12.0,0.,12.0,0.,12.0,0.,12.0
1981-08-28 09:11:39.820 ,0,0,0.,12.0,0.,12.0,0.,12.0,0.,12.0
1981-08-28 09:11:51.820 ,0,0,0.,12.0,0.,12.0,0.,12.0,0.,12.0
1981-08-28 09:12:03.820 ,0,1,0.,12.0,0.,12.0,0.,12.0,0.,12.0
1981-08-28 09:12:15.820 ,0,1,0.,12.0,0.,12.0,0.,12.0,0.,12.0
1981-08-28 09:12:27.820 ,0,0,0.,12.0,0.,12.0,0.,12.0,0.,12.0
1981-08-28 09:12:39.820 ,0,0,0.,12.0,0.,12.0,0.,12.0,0.,12.0
1981-08-28 09:12:51.820 ,1,1,0.,12.0,0.,12.0,0.,12.0,0.,12.0
1981-08-28 09:13:03.820 ,1,1,0.,12.0,0.,12.0,0.,12.0,0.,12.0
1981-08-28 09:13:15.820 ,1,0,0.,12.0,0.,12.0,0.,12.0,0.,12.0
1981-08-28 09:13:27.820 ,1,0,0.,12.0,0.,12.0,0.,12.0,0.,12.0
1981-08-28 09:13:39.820 ,2,1,0.,12.0,0.,12.0,0.,12.0,0.,12.0
1981-08-28 09:13:51.820 ,2,1,0.,12.0,0.,12.0,0.,12.0,0.,12.0
1981-08-28 09:14:03.820 ,2,0,0.,12.0,0.,12.0,0.,12.0,0.,12.0
1981-08-28 09:14:15.820 ,2,0,0.,12.0,0.,12.0,0.,12.0,0.,12.0
1981-08-28 09:14:27.820 ,3,1,0.,12.0,0.,12.0,0.,12.0,0.,12.0
1981-08-28 09:14:39.820 ,3,1,0.,12.0,0.,12.0,0.,12.0,0.,12.0
1981-08-28 09:14:51.820 ,3,0,0.,12.0,0.,12.0,0.,12.0,0.,12.0
1981-08-28 09:15:03.820 ,3,0,0.,12.0,0.,12.0,0.,12.0,0.,12.0
1981-08-28 09:15:15.820 ,4,1,0.,12.0,0.,12.0,0.,12.0,0.,12.0
1981-08-28 09:15:27.820 ,4,1,0.,12.0,0.,12.0,0.,12.0,0.,12.0
1981-08-28 09:15:39.820 ,4,0,0.,12.0,0.,12.0,0.,12.0,0.,12.0
1981-08-28 09:15:51.820 ,4,0,0.,12.0,0.,12.0,0.,12.0,0.,12.0
1981-08-28 09:16:03.820 ,5,1,0.,12.0,0.,12.0,0.,12.0,0.,12.0
1981-08-28 09:16:15.820 ,5,1,0.,12.0,0.,12.0,0.,12.0,0.,12.0
1981-08-28 09:16:27.820 ,5,0,0.,12.0,0.,12.0,0.,12.0,0.,12.0
1981-08-28 09:16:39.820 ,5,0,0.,12.0,0.,12.0,0.,12.0,0.,12.0
1981-08-28 09:16:51.820 ,6,1,0.,12.0,0.,12.0,0.,12.0,0.,12.0
1981-08-28 09:17:03.820 ,6,1,0.,12.0,0.,12.0,0.,12.0,0.,12.0
1981-08-28 09:17:15.820 ,6,0,0.,12.0,0.,12.0,0.,12.0,0.,12.0
1981-08-28 09:17:27.820 ,6,0,0.,12.0,0.,12.0,0.,12.0,0.,12.0
1981-08-28 09:17:39.820 ,7,1,0.,12.0,0.,12.0,0.,12.0,0.,12.0
1981-08-28 09:17:51.820 ,7,1,0.,12.0,0.,12.0,0.,12.0,0.,12.0
1981-08-28 09:18:03.820 ,7,0,0.,12.0,0.,12.0,0.,12.0,0.,12.0
1981-08-28 09:18:15.820 ,7,0,0.,12.0,0.,12.0,0.,12.0,0.,12.0
1981-08-28 09:18:27.820 ,7,1,0.,12.0,0.,12.0,0.,12.0,0.,12.0
1981-08-28 09:18:39.820 ,7,1,0.,12.0,0.,12.0,0.,12.0,0.,12.0
1981-08-28 09:18:51.820 ,6,1,0.,12.0,0.,12.0,0.,12.0,0.,12.0
1981-08-28 09:19:03.820 ,6,1,0.,12.0,0.,12.0,0.,12.0,0.,12.0
1981-08-28 09:19:15.820 ,5,1,0.,12.0,0.,12.0,0.,12.0,0.,12.0
1981-08-28 09:19:27.820 ,5,1,0.,12.0,0.,12.0,0.,12.0,0.,12.0
1981-08-28 09:19:39.820 ,4,1,0.,12.0,0.,12.0,0.,12.0,0.,12.0
1981-08-28 09:19:51.820 ,4,1,0.,12.0,0.,12.0,0.,12.0,0.,12.0
1981-08-28 09:20:03.820 ,3,1,0.,12.0,0.,12.0,0.,12.0,0.,12.0
1981-08-28 09:20:15.820 ,3,1,0.,12.0,0.,12.0,0.,12.0,0.,12.0
1981-08-28 09:20:27.820 ,2,1,0.,12.0,0.,12.0,0.,12.0,0.,12.0
1981-08-28 09:20:39.820 ,2,1,0.,12.0,0.,12.0,0.,12.0,0.,12.0
1981-08-28 09:20:51.820 ,1,1,0.,12.0,0.,12.0,0.,12.0,0.,12.0
1981-08-28 09:21:03.820 ,1,1,0.,12.0,0.,12.0,0.,12.0,0.,12.0
1981-08-28 09:21:15.820 ,0,1,0.,12.0,0.,12.0,0.,12.0,0.,12.0
1981-08-28 09:21:27.820 ,0,1,0.,12.0,0.,12.0,0.,12.0,0.,12.0
1981-08-28 09:21:39.820 ,0,1,0.,12.0,0.,12.0,0.,12.0,0.,12.0
1981-08-28 09:21:51.820 ,0,1,0.,12.0,0.,12.0,0.,12.0,0.,12.0
1981-08-28 09:22:03.820 ,1,1,0.,12.0,0.,12.0,0.,12.0,0.,12.0
1981-08-28 09:22:15.820 ,1,1,0.,12.0,0.,12.0,0.,12.0,0.,12.0
1981-08-28 09:22:27.820 ,2,1,0.,12.0,0.,12.0,0.,12.0,0.,12.0
1981-08-28 09:22:39.820 ,2,1,0.,12.0,0.,12.0,0.,12.0,0.,12.0
1981-08-28 09:22:51.820 ,3,1,0.,12.0,0.,12.0,0.,12.0,0.,12.0
1981-08-28 09:23:03.820 ,3,1,0.,12.0,0.,12.0,0.,12.0,0.,12.0
1981-08-28 09:23:15.820 ,4,1,0.,12.0,0.,12.0,0.,12.0,0.,12.0
1981-08-28 09:23:27.820 ,4,1,0.,12.0,0.,12.0,0.,12.0,0.,12.0
1981-08-28 09:23:39.820 ,5,1,0.,12.0,0.,12.0,0.,12.0,0.,12.0
1981-08-28 09:23:51.820 ,5,1,0.,12.0,0.,12.0,0.,12.0,0.,12.0
1981-08-28 09:24:03.820 ,6,1,0.,12.0,0.,12.0,0.,12.0,0.,12.0
1981-08-28 09:24:15.820 ,6,1,0.,12.0,0.,12.0,0.,12.0,0.,12.0
1981-08-28 09:24:27.820 ,7,1,0.,12.0,0.,12.0,0.,12.0,0.,12.0
1981-08-28 09:24:39.820 ,7,1,0.,12.0,0.,12.0,0.,12.0,0.,12.0
1981-08-28 09:24:51.820 ,7,1,0.,12.0,0.,12.0,0.,12.0,0.,12.0
1981-08-28 09:25:03.820 ,7,1,0.,12.0,0.,12.0,0.,12.0,0.,12.0
1981-08-28 09:25:15.820 ,7,0,0.,12.0,0.,12.0,0.,12.0,0.,12.0
1981-08-28 09:25:27.820 ,7,0,0.,12.0,0.,12.0,0.,12.0,0.,12.0
1981-08-28 09:25:39.820 ,6,1,0.,12.0,0.,12.0,0.,12.0,0.,12.0
1981-08-28 09:25:51.820 ,6,1,0.,12.0,0.,12.0,0.,12.0,0.,12.0
1981-08-28 09:26:03.820 ,6,0,0.,12.0,0.,12.0,0.,12.0,0.,12.0
1981-08-28 09:26:15.820 ,6,0,0.,12.0,0.,12.0,0.,12.0,0.,12.0
1981-08-28 09:26:27.820 ,5,1,0.,12.0,0.,12.0,0.,12.0,0.,12.0
1981-08-28 09:26:39.820 ,5,1,0.,12.0,0.,12.0,0.,12.0,0.,12.0
1981-08-28 09:26:51.820 ,5,0,0.,12.0,0.,12.0,0.,12.0,0.,12.0
1981-08-28 09:27:03.820 ,5,0,0.,12.0,0.,12.0,0.,12.0,0.,12.0
1981-08-28 09:27:15.820 ,4,1,0.,12.0,0.,12.0,0.,12.0,0.,12.0
1981-08-28 09:27:27.820 ,4,1,0.,12.0,0.,12.0,0.,12.0,0.,12.0
1981-08-28 09:27:39.820 ,4,0,0.,12.0,0.,12.0,0.,12.0,0.,12.0
1981-08-28 09:27:51.820 ,4,0,0.,12.0,0.,12.0,0.,12.0,0.,12.0
1981-08-28 09:28:03.820 ,3,1,0.,12.0,0.,12.0,0.,12.0,0.,12.0
1981-08-28 09:28:15.820 ,3,1,0.,12.0,0.,12.0,0.,12.0,0.,12.0
1981-08-28 09:28:27.820 ,3,0,0.,12.0,0.,12.0,0.,12.0,0.,12.0
1981-08-28 09:28:39.820 ,3,0,0.,12.0,0.,12.0,0.,12.0,0.,12.0
1981-08-28 09:28:51.820 ,2,1,0.,12.0,0.,12.0,0.,12.0,0.,12.0
1981-08-28 09:29:03.820 ,2,1,0.,12.0,0.,12.0,0.,12.0,0.,12.0
1981-08-28 09:29:15.820 ,2,0,0.,12.0,0.,12.0,0.,12.0,0.,12.0
1981-08-28 09:29:27.820 ,2,0,0.,12.0,0.,12.0,0.,12.0,0.,12.0
1981-08-28 09:29:39.820 ,1,1,0.,12.0,0.,12.0,0.,12.0,0.,12.0
1981-08-28 09:29:51.820 ,1,1,0.,12.0,0.,12.0,0.,12.0,0.,12.0
1981-08-28 09:30:03.820 ,0,0,0.,12.0,0.,12.0,0.,12.0,0.,12.0
1981-08-28 09:30:15.820 ,0,0,0.,12.0,0.,12.0,0.,12.0,0.,12.0
1981-08-28 09:30:27.820 ,0,1,0.,12.0,0.,12.0,0.,12.0,0.,12.0
1981-08-28 09:30:39.820 ,0,1,0.,12.0,0.,12.0,0.,12.0,0.,12.0
1981-08-28 09:30:51.820 ,0,0,0.,12.0,0.,12.0,0.,12.0,0.,12.0
1981-08-28 09:31:03.820 ,0,0,0.,12.0,0.,12.0,0.,12.0,0.,12.0
1981-08-28 09:31:15.820 ,0,1,0.,12.0,0.,12.0,0.,12.0,0.,12.0
1981-08-28 09:31:27.820 ,0,1,0.,12.0,0.,12.0,0.,12.0,0.,12.0
1981-08-28 09:31:39.820 ,0,0,0.,12.0,0.,12.0,0.,12.0,0.,12.0
1981-08-28 09:31:51.820 ,0,0,0.,12.0,0.,12.0,0.,12.0,0.,12.0
1981-08-28 09:32:03.820 ,1,1,0.,12.0,0.,12.0,0.,12.0,0.,12.0
1981-08-28 09:32:15.820 ,1,1,0.,12.0,0.,12.0,0.,12.0,0.,12.0
1981-08-28 09:32:27.820 ,1,0,0.,12.0,0.,12.0,0.,12.0,0.,12.0
1981-08-28 09:32:39.820 ,1,0,0.,12.0,0.,12.0,0.,12.0,0.,12.0
1981-08-28 09:32:51.820 ,2,1,0.,12.0,0.,12.0,0.,12.0,0.,12.0
1981-08-28 09:33:03.820 ,2,1,0.,12.0,0.,12.0,0.,12.0,0.,12.0
1981-08-28 09:33:15.820 ,2,0,0.,12.0,0.,12.0,0.,12.0,0.,12.0
1981-08-28 09:33:27.820 ,2,0,0.,12.0,0.,12.0,0.,12.0,0.,12.0
1981-08-28 09:33:39.820 ,3,1,0.,12.0,0.,12.0,0.,12.0,0.,12.0
1981-08-28 09:33:51.820 ,3,1,0.,12.0,0.,12.0,0.,12.0,0.,12.0
1981-08-28 09:34:03.820 ,3,0,0.,12.0,0.,12.0,0.,12.0,0.,12.0
1981-08-28 09:34:15.820 ,3,0,0.,12.0,0.,12.0,0.,12.0,0.,12.0
1981-08-28 09:34:27.820 ,4,1,0.,12.0,0.,12.0,0.,12.0,0.,12.0
1981-08-28 09:34:39.820 ,4,1,0.,12.0,0.,12.0,0.,12.0,0.,12.0
1981-08-28 09:34:51.820 ,4,0,0.,12.0,0.,12.0,0.,12.0,0.,12.0
1981-08-28 09:35:03.820 ,4,0,0.,12.0,0.,12.0,0.,12.0,0.,12.0
1981-08-28 09:35:15.820 ,5,1,0.,12.0,0.,12.0,0.,12.0,0.,12.0
1981-08-28 09:35:27.820 ,5,1,0.,12.0,0.,12.0,0.,12.0,0.,12.0
1981-08-28 09:35:39.820 ,5,0,0.,12.0,0.,12.0,0.,12.0,0.,12.0
1981-08-28 09:35:51.820 ,5,0,0.,12.0,0.,12.0,0.,12.0,0.,12.0
1981-08-28 09:36:03.820 ,6,1,0.,12.0,0.,12.0,0.,12.0,0.,12.0
1981-08-28 09:36:15.820 ,6,1,0.,12.0,0.,12.0,0.,12.0,0.,12.0
1981-08-28 09:36:27.820 ,6,0,0.,12.0,0.,12.0,0.,12.0,0.,12.0
1981-08-28 09:36:39.820 ,6,0,0.,12.0,0.,12.0,0.,12.0,0.,12.0
1981-08-28 09:36:51.820 ,7,1,0.,12.0,0.,12.0,0.,12.0,0.,12.0
1981-08-28 09:37:03.820 ,7,1,0.,12.0,0.,12.0,0.,12.0,0.,12.0
1981-08-28 09:37:15.820 ,7,0,0.,12.0,0.,12.0,0.,12.0,0.,12.0
1981-08-28 09:37:27.820 ,7,0,0.,12.0,0.,12.0,0.,12.0,0.,12.0
1981-08-28 09:37:39.820 ,7,1,0.,12.0,0.,12.0,0.,12.0,0.,12.0
1981-08-28 09:37:51.820 ,7,1,0.,12.0,0.,12.0,0.,12.0,0.,12.0
1981-08-28 09:38:03.820 ,6,1,0.,12.0,0.,12.0,0.,12.0,0.,12.0
1981-08-28 09:38:15.820 ,6,1,0.,12.0,0.,12.0,0.,12.0,0.,12.0
1981-08-28 09:38:27.820 ,5,1,0.,12.0,0.,12.0,0.,12.0,0.,12.0
1981-08-28 09:38:39.820 ,5,1,0.,12.0,0.,12.0,0.,12.0,0.,12.0
1981-08-28 09:38:51.820 ,4,1,0.,12.0,0.,12.0,0.,12.0,0.,12.0
1981-08-28 09:39:03.820 ,4,1,0.,12.0,0.,12.0,0.,12.0,0.,12.0
1981-08-28 09:39:15.820 ,3,1,0.,12.0,0.,12.0,0.,12.0,0.,12.0
1981-08-28 09:39:27.820 ,3,1,0.,12.0,0.,12.0,0.,12.0,0.,12.0
1981-08-28 09:39:39.820 ,2,1,0.,12.0,0.,12.0,0.,12.0,0.,12.0
1981-08-28 09:39:51.820 ,2,1,0.,12.0,0.,12.0,0.,12.0,0.,12.0
1981-08-28 09:40:03.820 ,1,1,0.,12.0,0.,12.0,0.,12.0,0.,12.0
1981-08-28 09:40:15.820 ,1,1,0.,12.0,0.,12.0,0.,12.0,0.,12.0
1981-08-28 09:40:27.820 ,0,1,0.,12.0,0.,12.0,0.,12.0,0.,12.0
1981-08-28 09:40:39.820 ,0,1,0.,12.0,0.,12.0,0.,12.0,0.,12.0
1981-08-28 09:40:51.820 ,0,1,0.,12.0,0.,12.0,0.,12.0,0.,12.0
1981-08-28 09:41:03.820 ,0,1,0.,12.0,0.,12.0,0.,12.0,0.,12.0
1981-08-28 09:41:15.820 ,1,1,0.,12.0,0.,12.0,0.,12.0,0.,12.0
1981-08-28 09:41:27.820 ,1,1,0.,12.0,0.,12.0,0.,12.0,0.,12.0
1981-08-28 09:41:39.820 ,2,1,0.,12.0,0.,12.0,0.,12.0,0.,12.0
1981-08-28 09:41:51.820 ,2,1,0.,12.0,0.,12.0,0.,12.0,0.,12.0
1981-08-28 09:42:03.820 ,3,1,0.,12.0,0.,12.0,0.,12.0,0.,12.0
1981-08-28 09:42:15.820 ,3,1,0.,12.0,0.,12.0,0.,12.0,0.,12.0
1981-08-28 09:42:27.820 ,4,1,0.,12.0,0.,12.0,0.,12.0,0.,12.0
1981-08-28 09:42:39.820 ,4,1,0.,12.0,0.,12.0,0.,12.0,0.,12.0
1981-08-28 09:42:51.820 ,5,1,0.,12.0,0.,12.0,0.,12.0,0.,12.0
1981-08-28 09:43:03.820 ,5,1,0.,12.0,0.,12.0,0.,12.0,0.,12.0
1981-08-28 09:43:15.820 ,6,1,0.,12.0,0.,12.0,0.,12.0,0.,12.0
1981-08-28 09:43:27.820 ,6,1,0.,12.0,0.,12.0,0.,12.0,0.,12.0
1981-08-28 09:43:39.820 ,7,1,0.,12.0,0.,12.0,0.,12.0,0.,12.0
1981-08-28 09:43:51.820 ,7,1,0.,12.0,0.,12.0,0.,12.0,0.,12.0
1981-08-28 09:44:03.820 ,7,1,0.,12.0,0.,12.0,0.,12.0,0.,12.0
1981-08-28 09:44:15.820 ,7,1,0.,12.0,0.,12.0,0.,12.0,0.,12.0
1981-08-28 09:44:27.820 ,7,0,0.,12.0,0.,12.0,0.,12.0,0.,12.0
1981-08-28 09:44:39.820 ,7,0,0.,12.0,0.,12.0,0.,12.0,0.,12.0
1981-08-28 09:44:51.820 ,6,1,0.,12.0,0.,12.0,0.,12.0,0.,12.0
1981-08-28 09:45:03.820 ,6,1,0.,12.0,0.,12.0,0.,12.0,0.,12.0
1981-08-28 09:45:15.820 ,6,0,0.,12.0,0.,12.0,0.,12.0,0.,12.0
1981-08-28 09:45:27.820 ,6,0,0.,12.0,0.,12.0,0.,12.0,0.,12.0
1981-08-28 09:45:39.820 ,5,1,0.,12.0,0.,12.0,0.,12.0,0.,12.0
1981-08-28 09:45:51.820 ,5,1,0.,12.0,0.,12.0,0.,12.0,0.,12.0
1981-08-28 09:46:03.820 ,5,0,0.,12.0,0.,12.0,0.,12.0,0.,12.0
1981-08-28 09:46:15.820 ,5,0,0.,12.0,0.,12.0,0.,12.0,0.,12.0
1981-08-28 09:46:27.820 ,4,1,0.,12.0,0.,12.0,0.,12.0,0.,12.0
1981-08-28 09:46:39.820 ,4,1,0.,12.0,0.,12.0,0.,12.0,0.,12.0
1981-08-28 09:46:51.820 ,4,0,0.,12.0,0.,12.0,0.,12.0,0.,12.0
1981-08-28 09:47:03.820 ,4,0,0.,12.0,0.,12.0,0.,12.0,0.,12.0
1981-08-28 09:47:15.820 ,3,1,0.,12.0,0.,12.0,0.,12.0,0.,12.0
1981-08-28 09:47:27.820 ,3,1,0.,12.0,0.,12.0,0.,12.0,0.,12.0
1981-08-28 09:47:39.820 ,3,0,0.,12.0,0.,12.0,0.,12.0,0.,12.0
1981-08-28 09:47:51.820 ,3,0,0.,12.0,0.,12.0,0.,12.0,0.,12.0
1981-08-28 09:48:03.820 ,2,1,0.,12.0,0.,12.0,0.,12.0,0.,12.0
1981-08-28 09:48:15.820 ,2,1,0.,12.0,0.,12.0,0.,12.0,0.,12.0
1981-08-28 09:48:27.820 ,2,0,0.,12.0,0.,12.0,0.,12.0,0.,12.0
1981-08-28 09:48:39.820 ,2,0,0.,12.0,0.,12.0,0.,12.0,0.,12.0
1981-08-28 09:48:51.820 ,1,1,0.,12.0,0.,12.0,0.,12.0,0.,12.0
1981-08-28 09:49:03.820 ,1,1,0.,12.0,0.,12.0,0.,12.0,0.,12.0
1981-08-28 09:49:15.820 ,1,0,0.,12.0,0.,12.0,0.,12.0,0.,12.0
1981-08-28 09:49:27.820 ,1,0,0.,12.0,0.,12.0,0.,12.0,0.,12.0
1981-08-28 09:49:39.820 ,0,1,0.,12.0,0.,12.0,0.,12.0,0.,12.0
1981-08-28 09:49:51.820 ,0,1,0.,12.0,0.,12.0,0.,12.0,0.,12.0
1981-08-28 09:50:03.820 ,0,0,0.,12.0,0.,12.0,0.,12.0,0.,12.0
1981-08-28 09:50:15.820 ,0,0,0.,12.0,0.,12.0,0.,12.0,0.,12.0
1981-08-28 09:50:27.820 ,0,1,0.,12.0,0.,12.0,0.,12.0,0.,12.0
1981-08-28 09:50:39.820 ,0,1,0.,12.0,0.,12.0,0.,12.0,0.,12.0
1981-08-28 09:50:51.820 ,0,0,0.,12.0,0.,12.0,0.,12.0,0.,12.0
1981-08-28 09:51:03.820 ,0,0,0.,12.0,0.,12.0,0.,12.0,0.,12.0
1981-08-28 09:51:15.820 ,1,1,0.,12.0,0.,12.0,0.,12.0,0.,12.0
1981-08-28 09:51:27.820 ,1,1,0.,12.0,0.,12.0,0.,12.0,0.,12.0
1981-08-28 09:51:39.820 ,1,0,0.,12.0,0.,12.0,0.,12.0,0.,12.0
1981-08-28 09:51:51.820 ,1,0,0.,12.0,0.,12.0,0.,12.0,0.,12.0
1981-08-28 09:52:03.820 ,2,1,0.,12.0,0.,12.0,0.,12.0,0.,12.0
1981-08-28 09:52:15.820 ,2,1,0.,12.0,0.,12.0,0.,12.0,0.,12.0
1981-08-28 09:52:27.820 ,2,0,0.,12.0,0.,12.0,0.,12.0,0.,12.0
1981-08-28 09:52:39.820 ,2,0,0.,12.0,0.,12.0,0.,12.0,0.,12.0
1981-08-28 09:52:51.820 ,3,1,0.,12.0,0.,12.0,0.,12.0,0.,12.0
1981-08-28 09:53:03.820 ,3,1,0.,12.0,0.,12.0,0.,12.0,0.,12.0
1981-08-28 09:53:15.820 ,3,0,0.,12.0,0.,12.0,0.,12.0,0.,12.0
1981-08-28 09:53:27.820 ,3,0,0.,12.0,0.,12.0,0.,12.0,0.,12.0
1981-08-28 09:53:39.820 ,4,1,0.,12.0,0.,12.0,0.,12.0,0.,12.0
1981-08-28 09:53:51.820 ,4,1,0.,12.0,0.,12.0,0.,12.0,0.,12.0
1981-08-28 09:54:03.820 ,4,0,0.,12.0,0.,12.0,0.,12.0,0.,12.0
1981-08-28 09:54:15.820 ,4,0,0.,12.0,0.,12.0,0.,12.0,0.,12.0
1981-08-28 09:54:27.820 ,5,1,0.,12.0,0.,12.0,0.,12.0,0.,12.0
1981-08-28 09:54:39.820 ,5,1,0.,12.0,0.,12.0,0.,12.0,0.,12.0
1981-08-28 09:54:51.820 ,5,0,0.,12.0,0.,12.0,0.,12.0,0.,12.0
1981-08-28 09:55:03.820 ,5,0,0.,12.0,0.,12.0,0.,12.0,0.,12.0
1981-08-28 09:55:15.820 ,6,1,0.,12.0,0.,12.0,0.,12.0,0.,12.0
1981-08-28 09:55:27.820 ,6,1,0.,12.0,0.,12.0,0.,12.0,0.,12.0
1981-08-28 09:55:39.820 ,6,0,0.,12.0,0.,12.0,0.,12.0,0.,12.0
1981-08-28 09:55:51.820 ,6,0,0.,12.0,0.,12.0,0.,12.0,0.,12.0
1981-08-28 09:56:03.820 ,7,1,0.,12.0,0.,12.0,0.,12.0,0.,12.0
1981-08-28 09:56:15.820 ,7,1,0.,12.0,0.,12.0,0.,12.0,0.,12.0
1981-08-28 09:56:27.820 ,7,0,0.,12.0,0.,12.0,0.,12.0,0.,12.0
1981-08-28 09:56:39.820 ,7,0,0.,12.0,0.,12.0,0.,12.0,0.,12.0
1981-08-28 09:56:51.820 ,7,1,0.,12.0,0.,12.0,0.,12.0,0.,12.0
1981-08-28 09:57:03.820 ,7,1,0.,12.0,0.,12.0,0.,12.0,0.,12.0
1981-08-28 09:57:15.820 ,6,1,0.,12.0,0.,12.0,0.,12.0,0.,12.0
1981-08-28 09:57:27.820 ,6,1,0.,12.0,0.,12.0,0.,12.0,0.,12.0
1981-08-28 09:57:39.820 ,5,1,0.,12.0,0.,12.0,0.,12.0,0.,12.0
1981-08-28 09:57:51.820 ,5,1,0.,12.0,0.,12.0,0.,12.0,0.,12.0
1981-08-28 09:58:03.820 ,4,1,0.,12.0,0.,12.0,0.,12.0,0.,12.0
1981-08-28 09:58:15.820 ,4,1,0.,12.0,0.,12.0,0.,12.0,0.,12.0
1981-08-28 09:58:27.820 ,3,1,0.,12.0,0.,12.0,0.,12.0,0.,12.0
1981-08-28 09:58:39.820 ,3,1,0.,12.0,0.,12.0,0.,12.0,0.,12.0
1981-08-28 09:58:51.820 ,2,1,0.,12.0,0.,12.0,0.,12.0,0.,12.0
1981-08-28 09:59:03.820 ,2,1,0.,12.0,0.,12.0,0.,12.0,0.,12.0
1981-08-28 09:59:15.820 ,1,1,0.,12.0,0.,12.0,0.,12.0,0.,12.0
1981-08-28 09:59:27.820 ,1,1,0.,12.0,0.,12.0,0.,12.0,0.,12.0
1981-08-28 09:59:39.820 ,0,1,0.,12.0,0.,12.0,0.,12.0,0.,12.0
1981-08-28 09:59:51.820 ,0,1,0.,12.0,0.,12.0,0.,12.0,0.,12.0
1981-08-28 10:00:03.820 ,0,1,0.,12.0,0.,12.0,0.,12.0,0.,12.0
1981-08-28 10:00:15.820 ,0,1,0.,12.0,0.,12.0,0.,12.0,0.,12.0
1981-08-28 10:00:27.820 ,1,1,0.,12.0,0.,12.0,0.,12.0,0.,12.0
1981-08-28 10:00:39.820 ,1,1,0.,12.0,0.,12.0,0.,12.0,0.,12.0
1981-08-28 10:00:51.820 ,2,1,0.,12.0,0.,12.0,0.,12.0,0.,12.0
1981-08-28 10:01:03.820 ,2,1,0.,12.0,0.,12.0,0.,12.0,0.,12.0
1981-08-28 10:01:15.820 ,3,1,0.,12.0,0.,12.0,0.,12.0,0.,12.0
1981-08-28 10:01:27.820 ,3,1,0.,12.0,0.,12.0,0.,12.0,0.,12.0
1981-08-28 10:01:39.820 ,4,1,0.,12.0,0.,12.0,0.,12.0,0.,12.0
1981-08-28 10:01:51.820 ,4,1,0.,12.0,0.,12.0,0.,12.0,0.,12.0
1981-08-28 10:02:03.820 ,5,1,0.,12.0,0.,12.0,0.,12.0,0.,12.0
1981-08-28 10:02:15.820 ,5,1,0.,12.0,0.,12.0,0.,12.0,0.,12.0
1981-08-28 10:02:27.820 ,6,1,0.,12.0,0.,12.0,0.,12.0,0.,12.0
1981-08-28 10:02:39.820 ,6,1,0.,12.0,0.,12.0,0.,12.0,0.,12.0
1981-08-28 10:02:51.820 ,7,1,0.,12.0,0.,12.0,0.,12.0,0.,12.0
1981-08-28 10:03:03.820 ,7,1,0.,12.0,0.,12.0,0.,12.0,0.,12.0
1981-08-28 10:03:15.820 ,7,1,0.,12.0,0.,12.0,0.,12.0,0.,12.0
1981-08-28 10:03:27.820 ,7,1,0.,12.0,0.,12.0,0.,12.0,0.,12.0
1981-08-28 10:03:39.820 ,7,0,0.,12.0,0.,12.0,0.,12.0,0.,12.0
1981-08-28 10:03:51.820 ,7,0,0.,12.0,0.,12.0,0.,12.0,0.,12.0
1981-08-28 10:04:03.820 ,6,1,0.,12.0,0.,12.0,0.,12.0,0.,12.0
1981-08-28 10:04:15.820 ,6,1,0.,12.0,0.,12.0,0.,12.0,0.,12.0
1981-08-28 10:04:27.820 ,6,0,0.,12.0,0.,12.0,0.,12.0,0.,12.0
1981-08-28 10:04:39.820 ,6,0,0.,12.0,0.,12.0,0.,12.0,0.,12.0
1981-08-28 10:04:51.820 ,5,1,0.,12.0,0.,12.0,0.,12.0,0.,12.0
1981-08-28 10:05:03.820 ,5,1,0.,12.0,0.,12.0,0.,12.0,0.,12.0
1981-08-28 10:05:15.820 ,5,0,0.,12.0,0.,12.0,0.,12.0,0.,12.0
1981-08-28 10:05:27.820 ,5,0,0.,12.0,0.,12.0,0.,12.0,0.,12.0
1981-08-28 10:05:39.820 ,4,1,0.,12.0,0.,12.0,0.,12.0,0.,12.0
1981-08-28 10:05:51.820 ,4,1,0.,12.0,0.,12.0,0.,12.0,0.,12.0
1981-08-28 10:06:03.820 ,4,0,0.,12.0,0.,12.0,0.,12.0,0.,12.0
1981-08-28 10:06:15.820 ,4,0,0.,12.0,0.,12.0,0.,12.0,0.,12.0
1981-08-28 10:06:27.820 ,3,1,0.,12.0,0.,12.0,0.,12.0,0.,12.0
1981-08-28 10:06:39.820 ,3,1,0.,12.0,0.,12.0,0.,12.0,0.,12.0
1981-08-28 10:06:51.820 ,3,0,0.,12.0,0.,12.0,0.,12.0,0.,12.0
1981-08-28 10:07:03.820 ,3,0,0.,12.0,0.,12.0,0.,12.0,0.,12.0
1981-08-28 10:07:15.820 ,2,1,0.,12.0,0.,12.0,0.,12.0,0.,12.0
1981-08-28 10:07:27.820 ,2,1,0.,12.0,0.,12.0,0.,12.0,0.,12.0
1981-08-28 10:07:39.820 ,2,0,0.,12.0,0.,12.0,0.,12.0,0.,12.0
1981-08-28 10:07:51.820 ,2,0,0.,12.0,0.,12.0,0.,12.0,0.,12.0
1981-08-28 10:08:03.820 ,1,1,0.,12.0,0.,12.0,0.,12.0,0.,12.0
1981-08-28 10:08:15.820 ,1,1,0.,12.0,0.,12.0,0.,12.0,0.,12.0
1981-08-28 10:08:27.820 ,1,0,0.,12.0,0.,12.0,0.,12.0,0.,12.0
1981-08-28 10:08:39.820 ,1,0,0.,12.0,0.,12.0,0.,12.0,0.,12.0
1981-08-28 10:08:51.820 ,0,1,0.,12.0,0.,12.0,0.,12.0,0.,12.0
1981-08-28 10:09:03.820 ,0,1,0.,12.0,0.,12.0,0.,12.0,0.,12.0
1981-08-28 10:09:15.820 ,0,0,0.,12.0,0.,12.0,0.,12.0,0.,12.0
1981-08-28 10:09:27.820 ,0,0,0.,12.0,0.,12.0,0.,12.0,0.,12.0
1981-08-28 10:09:39.820 ,0,1,0.,12.0,0.,12.0,0.,12.0,0.,12.0
1981-08-28 10:09:51.820 ,0,1,0.,12.0,0.,12.0,0.,12.0,0.,12.0
1981-08-28 10:10:03.820 ,0,0,0.,12.0,0.,12.0,0.,12.0,0.,12.0
1981-08-28 10:10:15.820 ,0,0,0.,12.0,0.,12.0,0.,12.0,0.,12.0
1981-08-28 10:10:27.820 ,1,1,0.,12.0,0.,12.0,0.,12.0,0.,12.0
1981-08-28 10:10:39.820 ,1,1,0.,12.0,0.,12.0,0.,12.0,0.,12.0
1981-08-28 10:10:51.820 ,1,0,0.,12.0,0.,12.0,0.,12.0,0.,12.0
1981-08-28 10:11:03.820 ,1,0,0.,12.0,0.,12.0,0.,12.0,0.,12.0
1981-08-28 10:11:15.820 ,2,1,0.,12.0,0.,12.0,0.,12.0,0.,12.0
1981-08-28 10:11:27.820 ,2,1,0.,12.0,0.,12.0,0.,12.0,0.,12.0
1981-08-28 10:11:39.820 ,2,0,0.,12.0,0.,12.0,0.,12.0,0.,12.0
1981-08-28 10:11:51.820 ,2,0,0.,12.0,0.,12.0,0.,12.0,0.,12.0
1981-08-28 10:12:03.820 ,3,1,0.,12.0,0.,12.0,0.,12.0,0.,12.0
1981-08-28 10:12:15.820 ,3,1,0.,12.0,0.,12.0,0.,12.0,0.,12.0
1981-08-28 10:12:27.820 ,3,0,0.,12.0,0.,12.0,0.,12.0,0.,12.0
1981-08-28 10:12:39.820 ,3,0,0.,12.0,0.,12.0,0.,12.0,0.,12.0
1981-08-28 10:12:51.820 ,4,1,0.,12.0,0.,12.0,0.,12.0,0.,12.0
1981-08-28 10:13:03.820 ,4,1,0.,12.0,0.,12.0,0.,12.0,0.,12.0
1981-08-28 10:13:15.820 ,4,0,0.,12.0,0.,12.0,0.,12.0,0.,12.0
1981-08-28 10:13:27.820 ,4,0,0.,12.0,0.,12.0,0.,12.0,0.,12.0
1981-08-28 10:13:39.820 ,5,1,0.,12.0,0.,12.0,0.,12.0,0.,12.0
1981-08-28 10:13:51.820 ,5,1,0.,12.0,0.,12.0,0.,12.0,0.,12.0
1981-08-28 10:14:03.820 ,5,0,0.,12.0,0.,12.0,0.,12.0,0.,12.0
1981-08-28 10:14:15.820 ,5,0,0.,12.0,0.,12.0,0.,12.0,0.,12.0
1981-08-28 10:14:27.820 ,6,1,0.,12.0,0.,12.0,0.,12.0,0.,12.0
1981-08-28 10:14:39.820 ,6,1,0.,12.0,0.,12.0,0.,12.0,0.,12.0
1981-08-28 10:14:51.820 ,6,0,0.,12.0,0.,12.0,0.,12.0,0.,12.0
1981-08-28 10:15:03.820 ,6,0,0.,12.0,0.,12.0,0.,12.0,0.,12.0
1981-08-28 10:15:15.820 ,7,1,0.,12.0,0.,12.0,0.,12.0,0.,12.0
1981-08-28 10:15:27.820 ,7,1,0.,12.0,0.,12.0,0.,12.0,0.,12.0
1981-08-28 10:15:39.820 ,7,0,0.,12.0,0.,12.0,0.,12.0,0.,12.0
1981-08-28 10:15:51.820 ,7,0,0.,12.0,0.,12.0,0.,12.0,0.,12.0
1981-08-28 10:16:03.820 ,7,1,0.,12.0,0.,12.0,0.,12.0,0.,12.0
1981-08-28 10:16:15.820 ,7,1,0.,12.0,0.,12.0,0.,12.0,0.,12.0
1981-08-28 10:16:27.820 ,6,1,0.,12.0,0.,12.0,0.,12.0,0.,12.0
1981-08-28 10:16:39.820 ,6,1,0.,12.0,0.,12.0,0.,12.0,0.,12.0
1981-08-28 10:16:51.820 ,5,1,0.,12.0,0.,12.0,0.,12.0,0.,12.0
1981-08-28 10:17:03.820 ,5,1,0.,12.0,0.,12.0,0.,12.0,0.,12.0
1981-08-28 10:17:15.810 ,4,1,0.,12.0,0.,12.0,0.,12.0,0.,12.0
1981-08-28 10:17:27.810 ,4,1,0.,12.0,0.,12.0,0.,12.0,0.,12.0